LNI134 WADD-WAAA

Flight info

Callsign LNI134
Flight time N/A
Altitude 33000
Route PEDET W41 LIPOT
Aircraft B744/H-SDE3FGHIM1M2RWXY/LB1

Departure

Time N/A
Airport Denpasar I Gusti Ngurah Rai International Airport (WADD)

Arrival

Time 2026-04-25 08:02
Airport Sultan Hasanuddin International Airport (WAAA)
Time Latitude Longitude Altitude Speed Heading
2026-04-25 07:10 -5.41659 118.76421 31064 ft 438 kts 45°
2026-04-25 07:11 -5.39580 118.78658 30585 ft 435 kts 45°
2026-04-25 07:11 -5.37521 118.80874 30108 ft 432 kts 45°
2026-04-25 07:11 -5.35480 118.83071 29630 ft 429 kts 45°
2026-04-25 07:11 -5.33458 118.85253 29154 ft 426 kts 45°
2026-04-25 07:12 -5.31415 118.87455 28668 ft 423 kts 44°
2026-04-25 07:12 -5.27437 118.91737 27715 ft 417 kts 44°
2026-04-25 07:12 -5.25468 118.93857 27238 ft 414 kts 44°
2026-04-25 07:13 -5.23517 118.95957 26761 ft 411 kts 44°
2026-04-25 07:13 -5.21550 118.98073 26277 ft 408 kts 44°
2026-04-25 07:13 -5.19624 119.00146 25798 ft 405 kts 44°
2026-04-25 07:13 -5.17686 119.02231 25316 ft 402 kts 44°
2026-04-25 07:14 -5.15786 119.04269 24836 ft 398 kts 43°
2026-04-25 07:14 -5.13623 119.05924 24333 ft 389 kts 27°
2026-04-25 07:14 -5.11224 119.07179 23824 ft 385 kts 22°
2026-04-25 07:14 -5.08733 119.08229 23343 ft 380 kts 17°
2026-04-25 07:15 -5.06243 119.09079 22872 ft 376 kts 14°
2026-04-25 07:15 -5.03715 119.09865 22380 ft 374 kts 14°
2026-04-25 07:15 -5.01249 119.10665 21908 ft 371 kts 14°
2026-04-25 07:15 -4.98810 119.11471 21448 ft 368 kts 14°
2026-04-25 07:16 -4.96385 119.12277 20977 ft 366 kts 14°
2026-04-25 07:16 -4.93975 119.13077 20510 ft 363 kts 14°
2026-04-25 07:16 -4.91579 119.13872 20045 ft 361 kts 14°
2026-04-25 07:16 -4.89208 119.14659 19584 ft 358 kts 14°
2026-04-25 07:17 -4.86849 119.15441 19125 ft 356 kts 14°
2026-04-25 07:17 -4.84509 119.16218 18667 ft 353 kts 14°
2026-04-25 07:17 -4.82182 119.16990 18212 ft 351 kts 14°
2026-04-25 07:17 -4.79872 119.17756 17758 ft 348 kts 14°
2026-04-25 07:18 -4.77579 119.18517 17308 ft 346 kts 14°
2026-04-25 07:18 -4.75302 119.19272 16859 ft 344 kts 14°
2026-04-25 07:18 -4.73037 119.20023 16412 ft 341 kts 14°
2026-04-25 07:18 -4.70790 119.20768 15966 ft 339 kts 14°
2026-04-25 07:19 -4.68525 119.21520 15517 ft 337 kts 14°
2026-04-25 07:19 -4.66340 119.22349 15030 ft 339 kts 25°
2026-04-25 07:19 -4.64508 119.23852 14518 ft 344 kts 47°
2026-04-25 07:19 -4.63349 119.25937 14090 ft 345 kts 69°
2026-04-25 07:20 -4.63013 119.28298 13632 ft 343 kts 91°
2026-04-25 07:20 -4.63541 119.30602 13164 ft 339 kts 114°
2026-04-25 07:20 -4.64846 119.32525 12697 ft 331 kts 137°
2026-04-25 07:20 -4.66066 119.33465 12382 ft 325 kts 152°
2026-04-25 07:21 -4.68147 119.34153 12156 ft 312 kts 176°
2026-04-25 07:21 -4.70301 119.34064 12097 ft 311 kts 191°
2026-04-25 07:21 -4.72386 119.33625 12035 ft 309 kts 197°
2026-04-25 07:21 -4.74459 119.33049 11999 ft 308 kts 200°
2026-04-25 07:22 -4.76494 119.32415 11999 ft 306 kts 201°
2026-04-25 07:22 -4.78522 119.31758 12000 ft 306 kts 201°
2026-04-25 07:22 -4.80544 119.31098 12000 ft 306 kts 202°
2026-04-25 07:22 -4.82390 119.30079 11978 ft 302 kts 224°
2026-04-25 07:23 -4.83610 119.28416 11996 ft 296 kts 248°
2026-04-25 07:23 -4.83999 119.26422 11999 ft 292 kts 271°
2026-04-25 07:23 -4.83492 119.24465 11999 ft 293 kts 296°
2026-04-25 07:23 -4.82187 119.22903 12007 ft 297 kts 317°
2026-04-25 07:24 -4.80468 119.21728 11998 ft 301 kts 324°
2026-04-25 07:24 -4.78651 119.20677 12004 ft 302 kts 327°
2026-04-25 07:24 -4.76766 119.19734 11991 ft 304 kts 335°
2026-04-25 07:24 -4.74675 119.19395 11994 ft 310 kts 359°
2026-04-25 07:25 -4.72548 119.19868 12009 ft 318 kts 15°
2026-04-25 07:25 -4.70474 119.20676 12000 ft 321 kts 17°
2026-04-25 07:25 -4.68394 119.21506 12001 ft 322 kts 18°
2026-04-25 07:25 -4.66448 119.22609 11986 ft 325 kts 37°
2026-04-25 07:26 -4.65056 119.24356 11993 ft 330 kts 59°
2026-04-25 07:26 -4.64392 119.26566 11998 ft 334 kts 82°
2026-04-25 07:26 -4.64585 119.28879 12000 ft 335 kts 105°
2026-04-25 07:26 -4.65606 119.30961 12001 ft 333 kts 128°
2026-04-25 07:27 -4.67299 119.32502 12001 ft 328 kts 151°
2026-04-25 07:27 -4.69402 119.33279 12001 ft 320 kts 174°
2026-04-25 07:27 -4.71591 119.33256 12016 ft 312 kts 191°
2026-04-25 07:27 -4.73708 119.32831 12006 ft 309 kts 197°
2026-04-25 07:28 -4.75773 119.32264 12001 ft 307 kts 200°
2026-04-25 07:28 -4.77813 119.31633 12000 ft 306 kts 201°
2026-04-25 07:28 -4.79838 119.30978 12000 ft 306 kts 201°
2026-04-25 07:28 -4.81791 119.30160 11974 ft 304 kts 217°
2026-04-25 07:29 -4.83244 119.28680 11994 ft 297 kts 240°
2026-04-25 07:29 -4.83922 119.26751 11999 ft 293 kts 264°
2026-04-25 07:29 -4.83705 119.24742 11999 ft 292 kts 288°
2026-04-25 07:29 -4.82657 119.23039 11999 ft 295 kts 311°
2026-04-25 07:30 -4.81032 119.21762 12004 ft 300 kts 323°
2026-04-25 07:30 -4.79243 119.20670 12007 ft 302 kts 326°
2026-04-25 07:30 -4.77377 119.19694 11994 ft 304 kts 334°
2026-04-25 07:30 -4.75303 119.19274 11994 ft 309 kts 356°
2026-04-25 07:31 -4.73170 119.19676 12009 ft 317 kts 14°
2026-04-25 07:31 -4.71099 119.20485 12005 ft 321 kts 17°
2026-04-25 07:31 -4.69010 119.21290 12002 ft 321 kts 17°
2026-04-25 07:31 -4.66971 119.22200 11982 ft 323 kts 29°
2026-04-25 07:32 -4.65348 119.23760 11995 ft 328 kts 52°
2026-04-25 07:32 -4.64418 119.25858 11998 ft 334 kts 75°
2026-04-25 07:32 -4.64324 119.28178 12000 ft 335 kts 98°
2026-04-25 07:32 -4.65085 119.30373 12000 ft 334 kts 121°
2026-04-25 07:33 -4.66580 119.32121 12001 ft 330 kts 143°
2026-04-25 07:33 -4.68579 119.33167 12001 ft 323 kts 166°
2026-04-25 07:33 -4.70771 119.33383 12012 ft 314 kts 187°
2026-04-25 07:33 -4.72911 119.33045 12009 ft 310 kts 195°
2026-04-25 07:34 -4.74994 119.32513 12002 ft 307 kts 199°
2026-04-25 07:34 -4.77039 119.31898 12000 ft 306 kts 201°
2026-04-25 07:34 -4.79076 119.31244 12000 ft 306 kts 201°
2026-04-25 07:34 -4.81086 119.30555 11992 ft 305 kts 208°
2026-04-25 07:35 -4.82774 119.29326 11988 ft 300 kts 231°
2026-04-25 07:35 -4.83765 119.27530 11998 ft 294 kts 255°
2026-04-25 07:35 -4.83891 119.25510 11999 ft 292 kts 278°
2026-04-25 07:35 -4.83130 119.23634 11999 ft 294 kts 303°
2026-04-25 07:36 -4.81654 119.22210 12016 ft 298 kts 320°
2026-04-25 07:36 -4.79905 119.21071 12003 ft 301 kts 325°
2026-04-25 07:36 -4.78075 119.20039 12002 ft 303 kts 328°
2026-04-25 07:36 -4.76091 119.19325 11992 ft 307 kts 347°
2026-04-25 07:37 -4.73948 119.19440 12006 ft 314 kts
2026-04-25 07:37 -4.71860 119.20172 12012 ft 320 kts 18°
2026-04-25 07:37 -4.69780 119.20989 11999 ft 322 kts 17°
2026-04-25 07:37 -4.67697 119.21813 11996 ft 322 kts 20°
2026-04-25 07:38 -4.65871 119.23108 11997 ft 326 kts 43°
2026-04-25 07:38 -4.64660 119.25036 11996 ft 332 kts 66°
2026-04-25 07:38 -4.64246 119.27314 11999 ft 335 kts 89°
2026-04-25 07:38 -4.64694 119.29593 12000 ft 335 kts 112°
2026-04-25 07:39 -4.65934 119.31541 12001 ft 332 kts 135°
2026-04-25 07:39 -4.67779 119.32875 12001 ft 325 kts 158°
2026-04-25 07:39 -4.69940 119.33401 12002 ft 317 kts 180°
2026-04-25 07:39 -4.72112 119.33210 12012 ft 311 kts 193°
2026-04-25 07:40 -4.74184 119.32736 12004 ft 308 kts 198°
2026-04-25 07:40 -4.76267 119.32137 12000 ft 307 kts 200°
2026-04-25 07:40 -4.78277 119.31503 12000 ft 306 kts 201°
2026-04-25 07:40 -4.80301 119.30846 12000 ft 306 kts 202°
2026-04-25 07:41 -4.82178 119.29891 11977 ft 302 kts 222°
2026-04-25 07:41 -4.83466 119.28275 11996 ft 296 kts 246°
2026-04-25 07:41 -4.83937 119.26296 11999 ft 292 kts 269°
2026-04-25 07:41 -4.83510 119.24322 11999 ft 293 kts 293°
2026-04-25 07:42 -4.82267 119.22712 12005 ft 296 kts 316°
2026-04-25 07:42 -4.80580 119.21501 11996 ft 301 kts 324°
2026-04-25 07:42 -4.78775 119.20434 12006 ft 302 kts 327°
2026-04-25 07:42 -4.76873 119.19530 11989 ft 305 kts 339°
2026-04-25 07:43 -4.74729 119.19320 11995 ft 311 kts
2026-04-25 07:43 -4.72612 119.19876 12007 ft 319 kts 16°
2026-04-25 07:43 -4.70540 119.20695 11998 ft 322 kts 17°
2026-04-25 07:43 -4.68450 119.21504 12000 ft 321 kts 17°
2026-04-25 07:44 -4.66501 119.22536 11988 ft 324 kts 35°
2026-04-25 07:44 -4.65039 119.24258 11994 ft 330 kts 58°
2026-04-25 07:44 -4.64316 119.26446 11998 ft 334 kts 81°
2026-04-25 07:44 -4.64446 119.28765 12000 ft 335 kts 104°
2026-04-25 07:45 -4.65410 119.30872 12001 ft 333 kts 126°
2026-04-25 07:45 -4.67061 119.32461 12001 ft 328 kts 149°
2026-04-25 07:45 -4.69146 119.33301 12001 ft 320 kts 172°
2026-04-25 07:45 -4.71338 119.33326 12016 ft 313 kts 190°
2026-04-25 07:46 -4.73458 119.32917 12006 ft 309 kts 197°
2026-04-25 07:46 -4.75529 119.32356 12001 ft 307 kts 200°
2026-04-25 07:46 -4.77570 119.31728 12000 ft 306 kts 201°
2026-04-25 07:46 -4.79597 119.31073 12000 ft 306 kts 201°
2026-04-25 07:47 -4.81576 119.30305 11977 ft 304 kts 214°
2026-04-25 07:47 -4.83103 119.28893 11993 ft 298 kts 237°
2026-04-25 07:47 -4.83874 119.27000 11998 ft 293 kts 261°
2026-04-25 07:47 -4.83757 119.24983 11999 ft 292 kts 285°
2026-04-25 07:48 -4.82776 119.23209 11999 ft 295 kts 309°
2026-04-25 07:48 -4.81185 119.21897 12009 ft 299 kts 322°
2026-04-25 07:48 -4.79407 119.20795 12007 ft 302 kts 326°
2026-04-25 07:48 -4.77553 119.19795 11997 ft 303 kts 332°
2026-04-25 07:49 -4.75505 119.19282 11993 ft 308 kts 354°
2026-04-25 07:49 -4.73366 119.19607 12011 ft 316 kts 12°
2026-04-25 07:49 -4.71295 119.20403 12009 ft 321 kts 17°
2026-04-25 07:49 -4.69207 119.21211 12001 ft 321 kts 17°
2026-04-25 07:50 -4.67147 119.22089 11984 ft 323 kts 27°
2026-04-25 07:50 -4.65467 119.23576 11996 ft 328 kts 50°
2026-04-25 07:50 -4.64454 119.25634 11997 ft 333 kts 72°
2026-04-25 07:50 -4.64265 119.27914 12006 ft 335 kts 94°
2026-04-25 07:51 -4.64480 119.30268 11983 ft 336 kts 93°
2026-04-25 07:51 -4.64621 119.32601 11691 ft 333 kts 94°
2026-04-25 07:51 -4.64768 119.34911 11265 ft 331 kts 94°
2026-04-25 07:51 -4.64922 119.37210 10843 ft 329 kts 94°
2026-04-25 07:52 -4.65077 119.39493 10426 ft 327 kts 94°
2026-04-25 07:52 -4.65233 119.41765 10010 ft 325 kts 94°
2026-04-25 07:52 -4.65389 119.44019 9589 ft 324 kts 94°
2026-04-25 07:52 -4.65544 119.46262 9190 ft 321 kts 94°
2026-04-25 07:53 -4.65697 119.48463 8793 ft 319 kts 94°
2026-04-25 07:53 -4.65853 119.50700 8375 ft 318 kts 94°
2026-04-25 07:53 -4.66013 119.52905 7947 ft 316 kts 96°
2026-04-25 07:53 -4.66602 119.55001 7522 ft 311 kts 116°
2026-04-25 07:54 -4.67600 119.56909 7374 ft 309 kts 121°
2026-04-25 07:54 -4.68775 119.58684 7269 ft 301 kts 128°
2026-04-25 07:54 -4.70036 119.60281 7113 ft 293 kts 131°
2026-04-25 07:54 -4.71227 119.61677 6851 ft 288 kts 138°
2026-04-25 07:55 -4.72282 119.62464 6555 ft 282 kts 154°
2026-04-25 07:55 -4.73531 119.62986 6263 ft 278 kts 164°
2026-04-25 07:55 -4.75393 119.63495 6150 ft 277 kts 170°
2026-04-25 07:56 -4.77292 119.63833 6046 ft 276 kts 175°
2026-04-25 07:56 -4.79152 119.64063 5668 ft 276 kts 176°
2026-04-25 07:56 -4.79952 119.64150 5500 ft 276 kts 176°
2026-04-25 07:56 -4.81863 119.64376 5100 ft 276 kts 175°
2026-04-25 07:57 -4.83765 119.64624 4741 ft 275 kts 174°
2026-04-25 07:57 -4.85648 119.64879 4399 ft 272 kts 173°
2026-04-25 07:57 -4.87509 119.65133 4089 ft 264 kts 173°
2026-04-25 07:57 -4.89273 119.65257 3966 ft 245 kts 186°
2026-04-25 07:58 -4.90829 119.64843 3712 ft 225 kts 199°
2026-04-25 07:58 -4.92239 119.64236 3165 ft 217 kts 205°
2026-04-25 07:58 -4.93564 119.63532 2670 ft 211 kts 208°
2026-04-25 07:58 -4.94841 119.62792 2482 ft 212 kts 210°
2026-04-25 07:59 -4.96095 119.62052 2427 ft 206 kts 210°
2026-04-25 07:59 -4.97323 119.61334 2229 ft 202 kts 210°
2026-04-25 07:59 -4.98535 119.60628 1894 ft 201 kts 210°
2026-04-25 07:59 -4.99743 119.59925 1622 ft 200 kts 210°
2026-04-25 08:00 -5.00947 119.59224 1353 ft 200 kts 210°
2026-04-25 08:00 -5.02147 119.58526 1087 ft 199 kts 210°
2026-04-25 08:00 -5.03321 119.57843 819 ft 187 kts 210°
2026-04-25 08:00 -5.04390 119.57221 602 ft 169 kts 210°
2026-04-25 08:01 -5.05394 119.56637 400 ft 165 kts 210°
2026-04-25 08:01 -5.06364 119.56070 201 ft 160 kts 210°
2026-04-25 08:01 -5.07304 119.55530 63 ft 143 kts 210°
2026-04-25 08:01 -5.08046 119.55098 61 ft 97 kts 210°
2026-04-25 08:02 -5.08464 119.54854 60 ft 51 kts 210°
2026-04-25 08:02 -5.08749 119.54688 60 ft 44 kts 210°
2026-04-25 08:02 -5.08994 119.54544 60 ft 38 kts 210°
2026-04-25 08:02 -5.09193 119.54414 60 ft 23 kts 251°
2026-04-25 08:03 -5.09126 119.54296 60 ft 21 kts 328°
2026-04-25 08:03 -5.08998 119.54336 60 ft 20 kts 31°
2026-04-25 08:03 -5.08880 119.54405 60 ft 19 kts 30°
2026-04-25 08:03 -5.08768 119.54470 60 ft 18 kts 30°
2026-04-25 08:04 -5.08661 119.54532 60 ft 17 kts 30°
2026-04-25 08:04 -5.08560 119.54591 60 ft 16 kts 30°
2026-04-25 08:04 -5.08465 119.54646 60 ft 15 kts 30°
2026-04-25 08:04 -5.08375 119.54698 60 ft 14 kts 30°
2026-04-25 08:05 -5.08318 119.54731 60 ft 14 kts 30°
2026-04-25 08:05 -5.08237 119.54779 60 ft 13 kts 30°
2026-04-25 08:05 -5.08161 119.54823 60 ft 12 kts 30°
2026-04-25 08:05 -5.08082 119.54844 60 ft 12 kts 335°
2026-04-25 08:06 -5.08026 119.54783 60 ft 12 kts 301°
2026-04-25 08:06 -5.07979 119.54717 60 ft 11 kts 306°
2026-04-25 08:06 -5.07949 119.54668 60 ft 5 kts 302°
2026-04-25 08:06 -5.07944 119.54660 60 ft 0 kts 301°